CSN513 ZBAD-OIIE

Flight info

Callsign CSN513
Flight time N/A
Altitude 38100
Route BOTPU5L BOTPU W47 VIGEK W96 UPSUR W69 DKO V162 DAMRO W272 YBL W199 ALGOT V67 JSG W619 BILDA W112 TUSLI/K0902S1220 W187 SADAN W186 KAMUD/K0898F400 L141 TISIB L143 POGON/N0486F400 B114 RIKOP L720 BRD B451 RAPKI A647 MUXOR
Aircraft A359/H-SDE2E3GHIJ3J4J5LM1ORWXY/LB1D1

Departure

Time 2026-04-21 13:25
Airport Beijing Daxing International Airport (ZBAD)

Arrival

Time N/A
Airport Imam Khomeini International Airport (OIIE)
Time Latitude Longitude Altitude Speed Heading
2026-04-21 12:28 39.51120 116.40360 91 ft 0 kts 57°
2026-04-21 13:11 39.51116 116.40352 91 ft 4 kts 57°
2026-04-21 13:11 39.51104 116.40328 94 ft 3 kts 58°
2026-04-21 13:12 39.51090 116.40299 93 ft 4 kts 59°
2026-04-21 13:12 39.51077 116.40269 93 ft 4 kts 60°
2026-04-21 13:12 39.51063 116.40239 91 ft 4 kts 59°
2026-04-21 13:12 39.51049 116.40209 94 ft 4 kts 54°
2026-04-21 13:13 39.51031 116.40185 95 ft 4 kts 22°
2026-04-21 13:13 39.51021 116.40181 94 ft 0 kts 354°
2026-04-21 13:15 39.51034 116.40179 94 ft 5 kts 354°
2026-04-21 13:15 39.51094 116.40165 93 ft 12 kts 334°
2026-04-21 13:16 39.51124 116.40052 95 ft 16 kts 261°
2026-04-21 13:16 39.51117 116.40000 97 ft 0 kts 259°
2026-04-21 13:16 39.51116 116.39991 95 ft 3 kts 265°
2026-04-21 13:17 39.51130 116.39954 95 ft 6 kts 314°
2026-04-21 13:17 39.51199 116.39932 95 ft 15 kts 352°
2026-04-21 13:17 39.51321 116.39913 96 ft 16 kts 353°
2026-04-21 13:17 39.51421 116.39895 96 ft 12 kts 351°
2026-04-21 13:18 39.51518 116.39879 97 ft 18 kts 353°
2026-04-21 13:18 39.51669 116.39857 97 ft 26 kts 353°
2026-04-21 13:18 39.51789 116.39780 100 ft 19 kts 285°
2026-04-21 13:18 39.51781 116.39635 104 ft 16 kts 262°
2026-04-21 13:19 39.51764 116.39459 99 ft 26 kts 264°
2026-04-21 13:19 39.51740 116.39202 96 ft 26 kts 262°
2026-04-21 13:19 39.51720 116.38999 95 ft 13 kts 263°
2026-04-21 13:19 39.51719 116.38984 95 ft 0 kts 263°
2026-04-21 13:21 39.51717 116.38969 94 ft 5 kts 263°
2026-04-21 13:21 39.51710 116.38898 98 ft 11 kts 261°
2026-04-21 13:21 39.51677 116.38807 103 ft 12 kts 229°
2026-04-21 13:22 39.51588 116.38761 104 ft 17 kts 178°
2026-04-21 13:22 39.51575 116.38762 104 ft 0 kts 175°
2026-04-21 13:24 39.51413 116.38786 103 ft 56 kts 172°
2026-04-21 13:24 39.50820 116.38882 104 ft 114 kts 173°
2026-04-21 13:24 39.49857 116.39040 117 ft 162 kts 174°
2026-04-21 13:25 39.48787 116.39238 832 ft 149 kts 175°
2026-04-21 13:25 39.47792 116.39482 1527 ft 139 kts 177°
2026-04-21 13:25 39.46880 116.39745 2038 ft 133 kts 175°
2026-04-21 13:25 39.45967 116.40013 2282 ft 139 kts 184°
2026-04-21 13:26 39.44966 116.40045 2461 ft 152 kts 187°
2026-04-21 13:26 39.43849 116.40085 2633 ft 169 kts 185°
2026-04-21 13:26 39.42613 116.40189 2833 ft 187 kts 182°
2026-04-21 13:26 39.41249 116.40361 3044 ft 207 kts 179°
2026-04-21 13:27 39.39754 116.40582 3286 ft 225 kts 178°
2026-04-21 13:27 39.38142 116.40832 3560 ft 241 kts 177°
2026-04-21 13:27 39.36446 116.41093 3976 ft 250 kts 177°
2026-04-21 13:27 39.34707 116.40981 4442 ft 251 kts 199°
2026-04-21 13:28 39.33215 116.39857 4903 ft 252 kts 227°
2026-04-21 13:28 39.32209 116.37999 5389 ft 256 kts 241°
2026-04-21 13:28 39.31348 116.35945 5837 ft 264 kts 243°
2026-04-21 13:28 39.30472 116.33824 6293 ft 271 kts 243°
2026-04-21 13:29 39.29570 116.31657 6729 ft 278 kts 242°
2026-04-21 13:29 39.28635 116.29448 7260 ft 282 kts 243°
2026-04-21 13:29 39.27684 116.27222 7768 ft 286 kts 244°
2026-04-21 13:29 39.26728 116.24964 8341 ft 287 kts 243°
2026-04-21 13:30 39.25754 116.22688 8851 ft 292 kts 244°
2026-04-21 13:30 39.24769 116.20383 9420 ft 295 kts 243°
2026-04-21 13:30 39.23773 116.18058 9971 ft 298 kts 243°
2026-04-21 13:30 39.22753 116.15685 10312 ft 308 kts 244°
2026-04-21 13:31 39.21694 116.13212 10540 ft 322 kts 243°
2026-04-21 13:31 39.20974 116.11530 10714 ft 330 kts 243°
2026-04-21 13:31 39.19837 116.08892 10947 ft 343 kts 243°
2026-04-21 13:31 39.18272 116.05253 11232 ft 358 kts 244°
2026-04-21 13:32 39.17291 116.02281 11435 ft 366 kts 258°
2026-04-21 13:32 39.17138 115.99010 11656 ft 368 kts 281°
2026-04-21 13:32 39.17965 115.95906 12021 ft 368 kts 302°
2026-04-21 13:32 39.19009 115.94137 12313 ft 366 kts 316°
2026-04-21 13:33 39.21062 115.92305 12725 ft 366 kts 337°
2026-04-21 13:33 39.23534 115.91562 13133 ft 368 kts 358°
2026-04-21 13:33 39.26111 115.91983 13527 ft 372 kts 13°
2026-04-21 13:33 39.28625 115.92797 13956 ft 374 kts 11°
2026-04-21 13:34 39.31189 115.93033 14258 ft 377 kts 353°
2026-04-21 13:34 39.33756 115.92341 14640 ft 379 kts 345°
2026-04-21 13:34 39.36302 115.91431 15074 ft 379 kts 343°
2026-04-21 13:34 39.38849 115.90509 15424 ft 383 kts 343°
2026-04-21 13:35 39.41436 115.89579 15805 ft 386 kts 343°
2026-04-21 13:35 39.44034 115.88650 16192 ft 388 kts 343°
2026-04-21 13:35 39.46639 115.87719 16582 ft 390 kts 343°
2026-04-21 13:35 39.49266 115.86783 16973 ft 393 kts 343°
2026-04-21 13:36 39.51903 115.85842 17371 ft 395 kts 343°
2026-04-21 13:36 39.54563 115.84893 17759 ft 397 kts 343°
2026-04-21 13:36 39.57234 115.83939 18130 ft 399 kts 342°
2026-04-21 13:36 39.59928 115.82977 18455 ft 402 kts 342°
2026-04-21 13:37 39.62622 115.82015 18746 ft 404 kts 342°
2026-04-21 13:37 39.65344 115.81041 19099 ft 405 kts 342°
2026-04-21 13:37 39.68064 115.80067 19454 ft 406 kts 342°
2026-04-21 13:37 39.70794 115.79089 19763 ft 409 kts 341°
2026-04-21 13:38 39.73545 115.78102 20067 ft 411 kts 341°
2026-04-21 13:38 39.76309 115.77111 20387 ft 413 kts 341°
2026-04-21 13:38 39.79072 115.76071 20686 ft 413 kts 338°
2026-04-21 13:38 39.81652 115.74478 20974 ft 410 kts 324°
2026-04-21 13:39 39.83790 115.72067 21253 ft 408 kts 309°
2026-04-21 13:39 39.85590 115.69208 21552 ft 408 kts 306°
2026-04-21 13:39 39.87333 115.66277 21844 ft 410 kts 306°
2026-04-21 13:39 39.89053 115.63379 22165 ft 411 kts 306°
2026-04-21 13:40 39.90808 115.60428 22420 ft 414 kts 306°
2026-04-21 13:40 39.92599 115.57424 22704 ft 416 kts 306°
2026-04-21 13:40 39.94954 115.53470 23073 ft 417 kts 305°
2026-04-21 13:40 39.96068 115.51430 23244 ft 418 kts 301°
2026-04-21 13:41 39.97461 115.48102 23517 ft 418 kts 292°
2026-04-21 13:41 39.98403 115.44531 23756 ft 417 kts 283°
2026-04-21 13:41 39.98898 115.40811 24024 ft 416 kts 276°
2026-04-21 13:41 39.99184 115.37056 24303 ft 417 kts 274°
2026-04-21 13:42 39.99380 115.33295 24563 ft 417 kts 273°
2026-04-21 13:42 39.99541 115.29510 24825 ft 418 kts 272°
2026-04-21 13:42 39.99696 115.25721 25028 ft 419 kts 272°
2026-04-21 13:42 39.99860 115.21924 25296 ft 419 kts 272°
2026-04-21 13:43 40.00036 115.18125 25541 ft 420 kts 273°
2026-04-21 13:43 40.00219 115.14330 25794 ft 420 kts 273°
2026-04-21 13:43 40.00406 115.10516 26013 ft 422 kts 273°
2026-04-21 13:43 40.00594 115.06698 26318 ft 421 kts 272°
2026-04-21 13:44 40.00782 115.02894 26686 ft 419 kts 272°
2026-04-21 13:44 40.00970 114.99099 26955 ft 421 kts 272°
2026-04-21 13:44 40.01157 114.95282 27202 ft 422 kts 272°
2026-04-21 13:44 40.01343 114.91460 27443 ft 423 kts 272°
2026-04-21 13:45 40.01529 114.87626 27695 ft 424 kts 272°
2026-04-21 13:45 40.01712 114.83778 27973 ft 425 kts 272°
2026-04-21 13:45 40.01895 114.79919 28236 ft 426 kts 272°
2026-04-21 13:45 40.02077 114.76057 28498 ft 427 kts 272°
2026-04-21 13:46 40.02259 114.72177 28774 ft 428 kts 272°
2026-04-21 13:46 40.02439 114.68301 29033 ft 429 kts 272°
2026-04-21 13:46 40.02616 114.64466 29264 ft 430 kts 272°
2026-04-21 13:46 40.02795 114.60556 29525 ft 431 kts 272°
2026-04-21 13:47 40.02973 114.56641 29773 ft 432 kts 272°
2026-04-21 13:47 40.03149 114.52721 30000 ft 434 kts 272°
2026-04-21 13:47 40.03325 114.48790 30213 ft 435 kts 272°
2026-04-21 13:47 40.03500 114.44848 30415 ft 436 kts 272°
2026-04-21 13:48 40.03674 114.40897 30633 ft 437 kts 272°
2026-04-21 13:48 40.03847 114.36931 30894 ft 438 kts 272°
2026-04-21 13:48 40.04019 114.32969 31210 ft 436 kts 271°
2026-04-21 13:48 40.04188 114.29032 31576 ft 434 kts 271°
2026-04-21 13:49 40.04356 114.25108 31924 ft 432 kts 271°
2026-04-21 13:49 40.04528 114.21200 32242 ft 431 kts 272°
2026-04-21 13:49 40.04905 114.17324 32546 ft 432 kts 277°
2026-04-21 13:49 40.05641 114.13514 32845 ft 434 kts 284°
2026-04-21 13:50 40.06765 114.09851 33149 ft 437 kts 290°
2026-04-21 13:50 40.08126 114.06297 33450 ft 438 kts 291°
2026-04-21 13:50 40.09557 114.02786 33737 ft 438 kts 292°
2026-04-21 13:50 40.11018 113.99304 33998 ft 438 kts 292°
2026-04-21 13:51 40.12483 113.95824 34246 ft 437 kts 292°
2026-04-21 13:51 40.13924 113.92339 34490 ft 435 kts 292°
2026-04-21 13:51 40.15352 113.88842 34728 ft 434 kts 292°
2026-04-21 13:51 40.16763 113.85362 34979 ft 433 kts 291°
2026-04-21 13:52 40.18169 113.81881 35232 ft 433 kts 291°
2026-04-21 13:52 40.19572 113.78400 35473 ft 432 kts 292°
2026-04-21 13:52 40.20972 113.74924 35704 ft 431 kts 292°
2026-04-21 13:52 40.22371 113.71449 35922 ft 431 kts 292°
2026-04-21 13:53 40.23768 113.67977 36142 ft 431 kts 292°
2026-04-21 13:53 40.25163 113.64511 36382 ft 430 kts 292°
2026-04-21 13:53 40.26561 113.61057 36599 ft 429 kts 292°
2026-04-21 13:53 40.27971 113.57610 36781 ft 429 kts 292°
2026-04-21 13:54 40.29383 113.54166 36989 ft 429 kts 292°
2026-04-21 13:54 40.30781 113.50740 37187 ft 428 kts 292°
2026-04-21 13:54 40.32182 113.47296 37425 ft 427 kts 292°
2026-04-21 13:54 40.33576 113.43861 37628 ft 426 kts 292°
2026-04-21 13:55 40.34970 113.40421 37782 ft 427 kts 292°
2026-04-21 13:55 40.36365 113.36971 37879 ft 429 kts 292°
2026-04-21 13:55 40.37741 113.33569 38029 ft 429 kts 292°
2026-04-21 13:55 40.39143 113.30098 38066 ft 431 kts 292°
2026-04-21 13:56 40.41947 113.23151 38074 ft 431 kts 292°
2026-04-21 13:56 40.44747 113.16201 38069 ft 430 kts 292°
2026-04-21 13:57 40.47537 113.09256 38083 ft 430 kts 293°
2026-04-21 13:57 40.50328 113.02283 38071 ft 432 kts 293°
2026-04-21 13:58 40.53098 112.95284 38076 ft 432 kts 293°
2026-04-21 13:58 40.55862 112.88284 38078 ft 432 kts 293°
2026-04-21 13:59 40.58391 112.81143 38086 ft 428 kts 285°
2026-04-21 13:59 40.59643 112.73552 38081 ft 423 kts 276°
2026-04-21 14:00 40.60249 112.65846 38093 ft 423 kts 272°
2026-04-21 14:00 40.60602 112.58119 38099 ft 423 kts 272°
2026-04-21 14:01 40.60968 112.50395 38096 ft 423 kts 272°
2026-04-21 14:01 40.61291 112.42662 38102 ft 423 kts 271°
2026-04-21 14:02 40.61437 112.34928 38096 ft 422 kts 270°
2026-04-21 14:03 40.61659 112.23350 38094 ft 422 kts 270°
2026-04-21 14:03 40.61831 112.15633 38102 ft 422 kts 271°
2026-04-21 14:04 40.62004 112.07919 38100 ft 421 kts 271°
2026-04-21 14:04 40.62175 112.00271 38104 ft 420 kts 271°
2026-04-21 14:05 40.62348 111.92525 38104 ft 420 kts 271°
2026-04-21 14:05 40.62490 111.84897 38104 ft 420 kts 271°
2026-04-21 14:06 40.62625 111.77202 38105 ft 420 kts 271°
2026-04-21 14:06 40.62765 111.69532 38100 ft 418 kts 271°
2026-04-21 14:07 40.62902 111.61883 38102 ft 418 kts 271°
2026-04-21 14:07 40.63035 111.54234 38102 ft 418 kts 271°
2026-04-21 14:08 40.63162 111.46587 38097 ft 418 kts 270°
2026-04-21 14:08 40.63284 111.38943 38096 ft 418 kts 270°
2026-04-21 14:09 40.63401 111.31291 38094 ft 418 kts 270°
2026-04-21 14:09 40.63513 111.23643 38097 ft 418 kts 270°
2026-04-21 14:10 40.63621 111.15997 38096 ft 418 kts 270°
2026-04-21 14:10 40.63723 111.08350 38086 ft 417 kts 270°
2026-04-21 14:11 40.63819 111.00716 38093 ft 417 kts 270°
2026-04-21 14:11 40.63910 110.93127 38096 ft 417 kts 270°
2026-04-21 14:12 40.63996 110.85478 38099 ft 417 kts 270°
2026-04-21 14:12 40.64079 110.77840 38096 ft 417 kts 270°
2026-04-21 14:13 40.64151 110.70202 38106 ft 417 kts 270°
2026-04-21 14:13 40.64223 110.62568 38099 ft 418 kts 270°
2026-04-21 14:14 40.64293 110.54927 38102 ft 417 kts 270°
2026-04-21 14:14 40.64356 110.47287 38095 ft 417 kts 270°
2026-04-21 14:15 40.64418 110.39711 38097 ft 416 kts 270°
2026-04-21 14:15 40.64471 110.32093 38100 ft 416 kts 270°
2026-04-21 14:16 40.64517 110.24482 38100 ft 416 kts 270°
2026-04-21 14:16 40.64559 110.16873 38099 ft 415 kts 269°
2026-04-21 14:17 40.64597 110.09269 38096 ft 415 kts 269°
2026-04-21 14:17 40.64630 110.01674 38098 ft 415 kts 269°
2026-04-21 14:18 40.64211 109.94099 38086 ft 415 kts 263°
2026-04-21 14:18 40.63497 109.86571 38093 ft 414 kts 263°
2026-04-21 14:19 40.62734 109.79044 38091 ft 414 kts 262°
2026-04-21 14:19 40.61969 109.71535 38090 ft 414 kts 262°
2026-04-21 14:20 40.61207 109.64024 38091 ft 414 kts 262°
2026-04-21 14:20 40.60442 109.56509 38089 ft 414 kts 262°
2026-04-21 14:21 40.59673 109.48995 38088 ft 414 kts 262°
2026-04-21 14:21 40.58899 109.41483 38089 ft 415 kts 262°
2026-04-21 14:22 40.58251 109.35237 38084 ft 415 kts 262°
2026-04-21 14:22 40.57337 109.26483 38085 ft 415 kts 262°
2026-04-21 14:23 40.56674 109.20175 38064 ft 415 kts 262°
2026-04-21 14:23 40.55882 109.12680 38082 ft 413 kts 262°
2026-04-21 14:24 40.55086 109.05200 38083 ft 414 kts 262°
2026-04-21 14:24 40.54285 108.97715 38077 ft 414 kts 262°
2026-04-21 14:25 40.53478 108.90223 38080 ft 414 kts 262°
2026-04-21 14:25 40.52666 108.82730 38075 ft 414 kts 262°
2026-04-21 14:26 40.51850 108.75241 38072 ft 414 kts 262°
2026-04-21 14:26 40.51033 108.67793 38072 ft 415 kts 262°
2026-04-21 14:27 40.50204 108.60291 38075 ft 415 kts 262°
2026-04-21 14:27 40.49370 108.52783 38071 ft 415 kts 262°
2026-04-21 14:28 40.48531 108.45274 38048 ft 415 kts 261°
2026-04-21 14:28 40.47692 108.37802 38071 ft 413 kts 261°
2026-04-21 14:29 40.46847 108.30339 38072 ft 413 kts 261°
2026-04-21 14:29 40.45999 108.22882 38074 ft 413 kts 261°
2026-04-21 14:30 40.45147 108.15434 38080 ft 413 kts 261°
2026-04-21 14:30 40.44287 108.07970 38079 ft 413 kts 261°
2026-04-21 14:31 40.43424 108.00514 38080 ft 413 kts 261°
2026-04-21 14:31 40.42561 107.93069 38076 ft 413 kts 261°
2026-04-21 14:32 40.41692 107.85671 38084 ft 413 kts 261°
2026-04-21 14:32 40.40809 107.78219 38084 ft 413 kts 261°
2026-04-21 14:33 40.39916 107.70714 38089 ft 414 kts 261°
2026-04-21 14:33 40.39034 107.63332 38087 ft 412 kts 261°
2026-04-21 14:34 40.38145 107.55925 38090 ft 411 kts 261°
2026-04-21 14:34 40.37251 107.48525 38090 ft 411 kts 261°
2026-04-21 14:35 40.36352 107.41123 38098 ft 411 kts 261°
2026-04-21 14:35 40.35449 107.33729 38099 ft 412 kts 260°
2026-04-21 14:36 40.34538 107.26310 38104 ft 413 kts 260°
2026-04-21 14:36 40.33620 107.18876 38105 ft 412 kts 260°
2026-04-21 14:37 40.32700 107.11460 38108 ft 412 kts 260°
2026-04-21 14:37 40.31774 107.04045 38118 ft 412 kts 260°
2026-04-21 14:38 40.30788 106.96618 38108 ft 415 kts 257°
2026-04-21 14:38 40.29380 106.89281 38106 ft 414 kts 255°
2026-04-21 14:39 40.27898 106.82018 38106 ft 413 kts 255°
2026-04-21 14:39 40.26397 106.74758 38106 ft 413 kts 255°
2026-04-21 14:40 40.24908 106.67558 38109 ft 413 kts 255°
2026-04-21 14:40 40.23404 106.60283 38104 ft 415 kts 255°
2026-04-21 14:41 40.21894 106.53000 38107 ft 415 kts 255°
2026-04-21 14:41 40.20375 106.45699 38110 ft 415 kts 255°
2026-04-21 14:42 40.18854 106.38415 38110 ft 415 kts 255°
2026-04-21 14:42 40.17325 106.31119 38105 ft 416 kts 255°
2026-04-21 14:43 40.15793 106.23836 38113 ft 416 kts 255°
2026-04-21 14:43 40.14256 106.16548 38127 ft 416 kts 255°
2026-04-21 14:44 40.12715 106.09270 38117 ft 416 kts 255°
2026-04-21 14:44 40.11167 106.01987 38121 ft 416 kts 255°
2026-04-21 14:45 40.09617 105.94714 38120 ft 416 kts 255°
2026-04-21 14:45 40.08058 105.87423 38120 ft 417 kts 255°
2026-04-21 14:46 40.06494 105.80137 38119 ft 417 kts 255°
2026-04-21 14:46 40.04925 105.72851 38121 ft 417 kts 255°
2026-04-21 14:47 40.03353 105.65573 38128 ft 417 kts 255°
2026-04-21 14:47 40.01783 105.58329 38124 ft 419 kts 255°
2026-04-21 14:48 40.00175 105.50936 38123 ft 421 kts 255°
2026-04-21 14:48 39.98637 105.43568 38123 ft 421 kts 256°
2026-04-21 14:49 39.97198 105.36220 38123 ft 421 kts 256°
2026-04-21 14:49 39.95747 105.28838 38123 ft 421 kts 256°
2026-04-21 14:50 39.94507 105.22625 38126 ft 422 kts 256°
2026-04-21 14:50 39.92763 105.13969 38122 ft 423 kts 256°
2026-04-21 14:51 39.91279 105.06635 38123 ft 421 kts 256°
2026-04-21 14:51 39.89787 104.99279 38124 ft 419 kts 256°
2026-04-21 14:52 39.88293 104.91939 38140 ft 419 kts 256°
2026-04-21 14:52 39.86792 104.84596 38124 ft 421 kts 256°
2026-04-21 14:53 39.85282 104.77229 38123 ft 421 kts 256°
2026-04-21 14:53 39.83766 104.69863 38123 ft 421 kts 256°
2026-04-21 14:54 39.82244 104.62493 38116 ft 421 kts 256°
2026-04-21 14:54 39.80719 104.55134 38117 ft 422 kts 256°
2026-04-21 14:55 39.79187 104.47769 38119 ft 422 kts 255°
2026-04-21 14:55 39.77654 104.40423 38116 ft 419 kts 256°
2026-04-21 14:56 39.76128 104.33132 38117 ft 417 kts 256°
2026-04-21 14:56 39.74601 104.25865 38117 ft 417 kts 255°
2026-04-21 14:57 39.73067 104.18588 38122 ft 417 kts 255°
2026-04-21 14:57 39.71533 104.11332 38121 ft 417 kts 255°
2026-04-21 14:58 39.69992 104.04072 38124 ft 417 kts 255°
2026-04-21 14:58 39.68448 103.96819 38125 ft 417 kts 255°
2026-04-21 14:59 39.66899 103.89574 38123 ft 417 kts 255°
2026-04-21 14:59 39.65355 103.82372 38125 ft 417 kts 255°
2026-04-21 15:00 39.63796 103.75129 38124 ft 416 kts 255°
2026-04-21 15:00 39.62243 103.67935 38126 ft 413 kts 255°
2026-04-21 15:01 39.60692 103.60771 38123 ft 413 kts 255°
2026-04-21 15:01 39.59134 103.53599 38121 ft 413 kts 255°
2026-04-21 15:02 39.57573 103.46434 38122 ft 414 kts 255°
2026-04-21 15:02 39.56002 103.39254 38120 ft 415 kts 255°
2026-04-21 15:03 39.54422 103.32053 38120 ft 416 kts 254°
2026-04-21 15:03 39.52836 103.24849 38120 ft 416 kts 254°
2026-04-21 15:04 39.51249 103.17660 38120 ft 416 kts 254°
2026-04-21 15:04 39.49656 103.10471 38120 ft 414 kts 254°
2026-04-21 15:05 39.48064 103.03310 38120 ft 414 kts 254°
2026-04-21 15:05 39.45635 102.92564 38120 ft 414 kts 254°
2026-04-21 15:06 39.43980 102.85427 38118 ft 414 kts 253°
2026-04-21 15:06 39.42786 102.78161 38117 ft 415 kts 264°
2026-04-21 15:07 39.42997 102.70688 38119 ft 419 kts 274°
2026-04-21 15:07 39.43880 102.63217 38118 ft 421 kts 276°
2026-04-21 15:08 39.44779 102.55791 38115 ft 421 kts 275°
2026-04-21 15:08 39.45649 102.48308 38115 ft 421 kts 275°
2026-04-21 15:09 39.46507 102.40819 38115 ft 421 kts 275°
2026-04-21 15:09 39.47361 102.33318 38114 ft 422 kts 275°
2026-04-21 15:10 39.48215 102.25786 38115 ft 423 kts 275°
2026-04-21 15:10 39.48921 102.19531 38115 ft 423 kts 275°
2026-04-21 15:11 39.49766 102.12003 38117 ft 423 kts 275°
2026-04-21 15:11 39.50607 102.04465 38117 ft 423 kts 275°
2026-04-21 15:12 39.51445 101.96906 38118 ft 425 kts 275°
2026-04-21 15:12 39.52281 101.89323 38119 ft 426 kts 275°
2026-04-21 15:13 39.53113 101.81735 38118 ft 426 kts 275°
2026-04-21 15:13 39.53940 101.74149 38121 ft 426 kts 275°
2026-04-21 15:14 39.54762 101.66548 38127 ft 426 kts 275°
2026-04-21 15:14 39.55582 101.58912 38121 ft 430 kts 275°
2026-04-21 15:15 39.56402 101.51229 38120 ft 430 kts 275°
2026-04-21 15:15 39.57218 101.43555 38124 ft 430 kts 275°
2026-04-21 15:16 39.58025 101.35911 38124 ft 430 kts 275°
2026-04-21 15:16 39.58830 101.28226 38124 ft 431 kts 275°
2026-04-21 15:17 39.59633 101.20500 38126 ft 433 kts 275°
2026-04-21 15:17 39.60435 101.12751 38126 ft 434 kts 275°
2026-04-21 15:18 39.61233 101.04998 38126 ft 434 kts 275°
2026-04-21 15:18 39.62025 100.97241 38126 ft 434 kts 275°
2026-04-21 15:19 39.62812 100.89475 38126 ft 434 kts 275°
2026-04-21 15:19 39.63594 100.81710 38126 ft 434 kts 275°
2026-04-21 15:20 39.64370 100.73947 38123 ft 434 kts 275°
2026-04-21 15:20 39.65142 100.66174 38124 ft 434 kts 275°
2026-04-21 15:21 39.65902 100.58471 38124 ft 434 kts 274°
2026-04-21 15:21 39.66663 100.50683 38124 ft 436 kts 275°
2026-04-21 15:22 39.67423 100.42861 38124 ft 438 kts 275°
2026-04-21 15:22 39.68180 100.35026 38123 ft 438 kts 275°
2026-04-21 15:23 39.68933 100.27189 38123 ft 438 kts 275°
2026-04-21 15:23 39.69680 100.19330 38128 ft 438 kts 275°
2026-04-21 15:24 39.70424 100.11459 38124 ft 440 kts 275°
2026-04-21 15:24 39.71164 100.03564 38123 ft 441 kts 275°
2026-04-21 15:25 39.71900 99.95662 38121 ft 441 kts 275°
2026-04-21 15:25 39.72631 99.87750 38120 ft 441 kts 275°
2026-04-21 15:26 39.73357 99.79825 38117 ft 442 kts 275°
2026-04-21 15:26 39.74081 99.71870 38118 ft 444 kts 275°
2026-04-21 15:27 39.74800 99.63899 38111 ft 444 kts 275°
2026-04-21 15:27 39.75515 99.55924 38112 ft 444 kts 275°
2026-04-21 15:28 39.76223 99.47946 38109 ft 444 kts 275°
2026-04-21 15:28 39.76925 99.39969 38111 ft 445 kts 275°
2026-04-21 15:29 39.77624 99.31986 38107 ft 445 kts 275°
2026-04-21 15:29 39.78313 99.24047 38105 ft 445 kts 275°
2026-04-21 15:30 39.79001 99.16062 38108 ft 445 kts 275°
2026-04-21 15:30 39.79683 99.08069 38112 ft 445 kts 275°
2026-04-21 15:31 39.80361 99.00069 38109 ft 446 kts 275°
2026-04-21 15:31 39.81014 98.92051 38113 ft 446 kts 274°
2026-04-21 15:32 39.81526 98.84019 38114 ft 446 kts 273°
2026-04-21 15:32 39.82003 98.75983 38118 ft 446 kts 273°
2026-04-21 15:33 39.82495 98.67948 38119 ft 445 kts 274°
2026-04-21 15:33 39.82993 98.59913 38119 ft 445 kts 274°
2026-04-21 15:34 39.83490 98.51889 38118 ft 445 kts 274°
2026-04-21 15:34 39.83981 98.43850 38121 ft 446 kts 274°
2026-04-21 15:35 39.84286 98.35804 38124 ft 445 kts 267°
2026-04-21 15:35 39.83646 98.27844 38133 ft 446 kts 263°
2026-04-21 15:36 39.82780 98.19845 38153 ft 447 kts 262°
2026-04-21 15:36 39.81870 98.11838 38167 ft 447 kts 262°
2026-04-21 15:37 39.80968 98.03836 38176 ft 447 kts 262°
2026-04-21 15:37 39.80070 97.95833 38180 ft 447 kts 262°
2026-04-21 15:38 39.79166 97.87802 38186 ft 449 kts 262°
2026-04-21 15:38 39.78254 97.79760 38187 ft 450 kts 262°
2026-04-21 15:39 39.77337 97.71716 38197 ft 450 kts 262°
2026-04-21 15:39 39.76416 97.63683 38223 ft 448 kts 262°
2026-04-21 15:40 39.75490 97.55673 38228 ft 448 kts 262°
2026-04-21 15:40 39.74506 97.47655 38228 ft 450 kts 261°
2026-04-21 15:41 39.73426 97.39653 38228 ft 450 kts 261°
2026-04-21 15:41 39.72338 97.31647 38233 ft 449 kts 261°
2026-04-21 15:42 39.71266 97.23644 38263 ft 450 kts 261°
2026-04-21 15:42 39.70224 97.15698 38258 ft 450 kts 261°
2026-04-21 15:43 39.69171 97.07689 38264 ft 450 kts 261°
2026-04-21 15:43 39.68108 96.99688 38264 ft 450 kts 261°
2026-04-21 15:44 39.67039 96.91704 38259 ft 449 kts 261°
2026-04-21 15:44 39.65959 96.83691 38276 ft 451 kts 261°
2026-04-21 15:45 39.64880 96.75689 38299 ft 450 kts 261°
2026-04-21 15:45 39.63793 96.67691 38306 ft 450 kts 261°
2026-04-21 15:46 39.62702 96.59694 38306 ft 450 kts 261°
2026-04-21 15:46 39.61673 96.51694 38306 ft 450 kts 261°
2026-04-21 15:47 39.60664 96.43690 38310 ft 449 kts 261°
2026-04-21 15:47 39.59641 96.35684 38306 ft 451 kts 261°
2026-04-21 15:48 39.58603 96.27682 38333 ft 450 kts 261°
2026-04-21 15:48 39.57559 96.19699 38325 ft 451 kts 261°
2026-04-21 15:49 39.56505 96.11681 38327 ft 451 kts 261°
2026-04-21 15:49 39.55525 96.03656 38321 ft 451 kts 263°
2026-04-21 15:50 39.54669 95.95596 38321 ft 452 kts 263°
2026-04-21 15:50 39.53812 95.87569 38322 ft 453 kts 263°
2026-04-21 15:51 39.52921 95.79497 38325 ft 453 kts 262°
2026-04-21 15:51 39.52007 95.71373 38344 ft 453 kts 262°
2026-04-21 15:52 39.51092 95.63299 38347 ft 454 kts 263°
2026-04-21 15:52 39.50179 95.55263 38348 ft 454 kts 262°
2026-04-21 15:53 39.49254 95.47178 38343 ft 454 kts 262°
2026-04-21 15:53 39.48323 95.39093 38344 ft 454 kts 262°
2026-04-21 15:54 39.47386 95.31015 38326 ft 454 kts 263°
2026-04-21 15:54 39.46441 95.22912 38333 ft 456 kts 263°
2026-04-21 15:55 39.45489 95.14793 38334 ft 455 kts 262°
2026-04-21 15:55 39.44532 95.06701 38336 ft 455 kts 262°
2026-04-21 15:56 39.43572 94.98620 38321 ft 455 kts 262°
2026-04-21 15:56 39.42606 94.90537 38316 ft 456 kts 262°
2026-04-21 15:57 39.41632 94.82431 38300 ft 456 kts 262°
2026-04-21 15:57 39.40650 94.74318 38325 ft 457 kts 262°
2026-04-21 15:58 39.40156 94.70253 38442 ft 457 kts 262°
2026-04-21 15:58 39.39661 94.66194 38701 ft 456 kts 262°
2026-04-21 15:58 39.39167 94.62155 38930 ft 455 kts 262°
2026-04-21 15:58 39.38673 94.58124 39085 ft 454 kts 262°
2026-04-21 15:59 39.37677 94.50047 39230 ft 455 kts 263°
2026-04-21 15:59 39.36675 94.41973 39425 ft 456 kts 263°
2026-04-21 16:00 39.35675 94.33931 39677 ft 455 kts 263°
2026-04-21 16:00 39.34828 94.27168 39864 ft 455 kts 262°
2026-04-21 16:01 39.34320 94.23128 39999 ft 455 kts 262°
2026-04-21 16:01 39.33645 94.17785 40134 ft 456 kts 263°
2026-04-21 16:01 39.32786 94.11008 40258 ft 457 kts 263°
2026-04-21 16:02 39.31756 94.02918 40294 ft 456 kts 263°
2026-04-21 16:02 39.30721 93.94835 40295 ft 456 kts 262°
2026-04-21 16:03 39.29682 93.86753 40325 ft 457 kts 262°
2026-04-21 16:03 39.28633 93.78669 40295 ft 457 kts 262°
2026-04-21 16:04 39.27586 93.70635 40311 ft 457 kts 262°
2026-04-21 16:04 39.26526 93.62555 40313 ft 457 kts 262°
2026-04-21 16:05 39.25458 93.54458 40309 ft 457 kts 262°
2026-04-21 16:05 39.24388 93.46376 40319 ft 457 kts 262°
2026-04-21 16:06 39.23310 93.38292 40317 ft 457 kts 262°
2026-04-21 16:06 39.22227 93.30208 40312 ft 457 kts 262°
2026-04-21 16:07 39.21134 93.22144 40317 ft 457 kts 262°
2026-04-21 16:07 39.20039 93.14068 40300 ft 457 kts 262°
2026-04-21 16:08 39.18385 93.01956 40297 ft 458 kts 262°
2026-04-21 16:09 39.17278 92.93874 40313 ft 459 kts 262°
2026-04-21 16:09 39.16165 92.85770 40297 ft 459 kts 262°
2026-04-21 16:10 39.15040 92.77661 40305 ft 459 kts 262°
2026-04-21 16:10 39.13912 92.69569 40300 ft 459 kts 262°
2026-04-21 16:11 39.12775 92.61470 40295 ft 460 kts 262°
2026-04-21 16:11 39.11633 92.53366 40287 ft 460 kts 262°
2026-04-21 16:12 39.10485 92.45262 40287 ft 460 kts 262°
2026-04-21 16:12 39.09338 92.37210 40285 ft 460 kts 262°
2026-04-21 16:13 39.08779 92.29062 40287 ft 456 kts 274°
2026-04-21 16:13 39.09646 92.21001 40291 ft 454 kts 282°
2026-04-21 16:14 39.10854 92.13016 40285 ft 454 kts 283°
2026-04-21 16:14 39.12106 92.05046 40281 ft 453 kts 283°
2026-04-21 16:15 39.13333 91.97084 40285 ft 453 kts 282°
2026-04-21 16:15 39.14536 91.89119 40277 ft 453 kts 283°
2026-04-21 16:16 39.15730 91.81156 40287 ft 453 kts 282°
2026-04-21 16:16 39.16918 91.73190 40282 ft 453 kts 282°
2026-04-21 16:17 39.18099 91.65222 40274 ft 452 kts 282°
2026-04-21 16:17 39.19272 91.57290 40275 ft 453 kts 282°
2026-04-21 16:18 39.20445 91.49332 40273 ft 453 kts 283°
2026-04-21 16:18 39.21616 91.41356 40249 ft 452 kts 283°
2026-04-21 16:19 39.23003 91.33452 40248 ft 452 kts 285°
2026-04-21 16:19 39.24510 91.25589 40246 ft 452 kts 285°
2026-04-21 16:20 39.25987 91.17709 40241 ft 452 kts 285°
2026-04-21 16:20 39.27434 91.09804 40241 ft 452 kts 285°
2026-04-21 16:21 39.28860 91.01914 40233 ft 452 kts 285°
2026-04-21 16:21 39.30282 90.94010 40214 ft 452 kts 285°
2026-04-21 16:22 39.31699 90.86102 40211 ft 452 kts 285°
2026-04-21 16:22 39.33111 90.78201 40213 ft 452 kts 285°
2026-04-21 16:23 39.34510 90.70341 40200 ft 452 kts 285°
2026-04-21 16:23 39.35920 90.62385 40204 ft 452 kts 285°
2026-04-21 16:24 39.37317 90.54466 40200 ft 453 kts 285°
2026-04-21 16:24 39.38702 90.46577 40199 ft 453 kts 285°
2026-04-21 16:25 39.40092 90.38632 40168 ft 453 kts 285°
2026-04-21 16:25 39.41476 90.30688 40169 ft 454 kts 285°
2026-04-21 16:26 39.42857 90.22725 40163 ft 453 kts 285°
2026-04-21 16:26 39.44229 90.14773 40148 ft 453 kts 284°
2026-04-21 16:27 39.45603 90.06784 40147 ft 453 kts 284°
2026-04-21 16:27 39.46962 89.98845 40144 ft 454 kts 284°
2026-04-21 16:28 39.48325 89.90849 40145 ft 454 kts 284°
2026-04-21 16:28 39.49679 89.82868 40131 ft 454 kts 284°
2026-04-21 16:29 39.51029 89.74871 40135 ft 454 kts 284°
2026-04-21 16:29 39.52372 89.66883 40125 ft 454 kts 284°
2026-04-21 16:30 39.53710 89.58889 40129 ft 454 kts 284°
2026-04-21 16:30 39.55043 89.50896 40124 ft 454 kts 284°
2026-04-21 16:31 39.56361 89.42954 40127 ft 454 kts 284°
2026-04-21 16:31 39.57682 89.34952 40115 ft 454 kts 284°
2026-04-21 16:32 39.59001 89.26933 40112 ft 456 kts 284°
2026-04-21 16:32 39.60316 89.18895 40112 ft 455 kts 284°
2026-04-21 16:33 39.61624 89.10868 40111 ft 455 kts 284°
2026-04-21 16:33 39.62924 89.02850 40109 ft 455 kts 284°
2026-04-21 16:34 39.64221 88.94814 40108 ft 455 kts 284°
2026-04-21 16:34 39.65511 88.86785 40105 ft 455 kts 284°
2026-04-21 16:35 39.66796 88.78753 40095 ft 454 kts 284°
2026-04-21 16:35 39.68073 88.70727 40099 ft 454 kts 284°
2026-04-21 16:36 39.69347 88.62689 40100 ft 454 kts 284°
2026-04-21 16:36 39.70613 88.54658 40093 ft 454 kts 283°
2026-04-21 16:37 39.71874 88.46625 40080 ft 454 kts 283°
2026-04-21 16:37 39.73130 88.38585 40099 ft 454 kts 283°
2026-04-21 16:38 39.74370 88.30611 40098 ft 453 kts 283°
2026-04-21 16:38 39.75613 88.22576 40098 ft 453 kts 283°
2026-04-21 16:39 39.76849 88.14543 40100 ft 454 kts 283°
2026-04-21 16:39 39.78082 88.06498 40091 ft 454 kts 283°
2026-04-21 16:40 39.79310 87.98444 40104 ft 454 kts 283°
2026-04-21 16:40 39.80534 87.90384 40096 ft 454 kts 283°
2026-04-21 16:41 39.81545 87.83690 40096 ft 454 kts 283°
2026-04-21 16:41 39.82960 87.74255 40098 ft 455 kts 283°
2026-04-21 16:42 39.84165 87.66178 40092 ft 454 kts 283°
2026-04-21 16:42 39.85363 87.58105 40096 ft 454 kts 283°
2026-04-21 16:43 39.86556 87.50036 40096 ft 454 kts 283°
2026-04-21 16:43 39.87743 87.41962 40096 ft 454 kts 283°
2026-04-21 16:44 39.88926 87.33882 40096 ft 454 kts 282°
2026-04-21 16:44 39.90103 87.25796 40091 ft 454 kts 282°
2026-04-21 16:45 39.91266 87.17769 40096 ft 454 kts 282°
2026-04-21 16:45 39.92432 87.09679 40100 ft 454 kts 282°
2026-04-21 16:46 39.93591 87.01594 40096 ft 454 kts 282°
2026-04-21 16:46 39.94745 86.93502 40094 ft 454 kts 282°
2026-04-21 16:47 39.95895 86.85397 40101 ft 454 kts 282°
2026-04-21 16:47 39.97036 86.77310 40100 ft 454 kts 282°
2026-04-21 16:48 39.98174 86.69199 40100 ft 454 kts 282°
2026-04-21 16:48 39.99304 86.61109 40103 ft 454 kts 282°
2026-04-21 16:49 40.00423 86.53058 40096 ft 454 kts 282°
2026-04-21 16:49 40.01544 86.44943 40102 ft 454 kts 282°
2026-04-21 16:50 40.02658 86.36833 40104 ft 454 kts 282°
2026-04-21 16:50 40.03767 86.28721 40104 ft 454 kts 282°
2026-04-21 16:51 40.04693 86.21911 40101 ft 454 kts 282°
2026-04-21 16:51 40.05790 86.13804 40094 ft 454 kts 282°
2026-04-21 16:52 40.06883 86.05680 40098 ft 455 kts 282°
2026-04-21 16:52 40.08207 85.97622 40100 ft 453 kts 287°
2026-04-21 16:53 40.09906 85.89699 40102 ft 453 kts 287°
2026-04-21 16:53 40.11644 85.81848 40102 ft 453 kts 287°
2026-04-21 16:54 40.13396 85.73931 40102 ft 453 kts 287°
2026-04-21 16:54 40.15131 85.66027 40107 ft 453 kts 287°
2026-04-21 16:55 40.16864 85.58090 40103 ft 453 kts 287°
2026-04-21 16:55 40.18588 85.50163 40106 ft 453 kts 287°
2026-04-21 16:56 40.20305 85.42242 40095 ft 453 kts 287°
2026-04-21 16:56 40.22020 85.34297 40098 ft 453 kts 287°
2026-04-21 16:57 40.23728 85.26360 40096 ft 453 kts 287°
2026-04-21 16:57 40.25427 85.18430 40101 ft 453 kts 287°
2026-04-21 16:58 40.27122 85.10489 40096 ft 453 kts 287°
2026-04-21 16:58 40.28814 85.02537 40086 ft 453 kts 287°
2026-04-21 16:59 40.30495 84.94607 40090 ft 452 kts 287°
2026-04-21 16:59 40.32172 84.86668 40090 ft 452 kts 287°
2026-04-21 17:00 40.33840 84.78738 40094 ft 451 kts 287°
2026-04-21 17:00 40.35224 84.72138 40095 ft 451 kts 287°
2026-04-21 17:01 40.37160 84.62865 40094 ft 451 kts 287°
2026-04-21 17:01 40.38810 84.54936 40097 ft 450 kts 287°
2026-04-21 17:02 40.40442 84.47063 40095 ft 450 kts 287°
2026-04-21 17:02 40.42081 84.39125 40091 ft 450 kts 287°
2026-04-21 17:03 40.43713 84.31191 40087 ft 450 kts 286°
2026-04-21 17:03 40.45339 84.23254 40096 ft 450 kts 286°
2026-04-21 17:04 40.46956 84.15335 40098 ft 449 kts 286°
2026-04-21 17:04 40.48567 84.07409 40086 ft 449 kts 286°
2026-04-21 17:05 40.50174 83.99477 40079 ft 449 kts 286°
2026-04-21 17:05 40.51774 83.91552 40083 ft 449 kts 286°
2026-04-21 17:06 40.53421 83.83649 40100 ft 448 kts 287°
2026-04-21 17:06 40.55074 83.75821 40095 ft 447 kts 287°
2026-04-21 17:07 40.56728 83.67936 40098 ft 447 kts 287°
2026-04-21 17:07 40.58368 83.60050 40097 ft 447 kts 287°
2026-04-21 17:08 40.60000 83.52157 40088 ft 447 kts 287°
2026-04-21 17:08 40.61628 83.44259 40093 ft 446 kts 287°
2026-04-21 17:09 40.64053 83.32442 40097 ft 446 kts 287°
2026-04-21 17:09 40.65654 83.24601 40096 ft 446 kts 286°
2026-04-21 17:10 40.67258 83.16715 40096 ft 446 kts 286°
2026-04-21 17:10 40.68854 83.08836 40095 ft 444 kts 286°
2026-04-21 17:11 40.70441 83.00974 40102 ft 444 kts 286°
2026-04-21 17:11 40.72023 82.93107 40098 ft 444 kts 286°
2026-04-21 17:12 40.73598 82.85248 40093 ft 443 kts 286°
2026-04-21 17:12 40.75167 82.77381 40090 ft 443 kts 286°
2026-04-21 17:13 40.76725 82.69539 40090 ft 441 kts 286°
2026-04-21 17:13 40.78273 82.61723 40091 ft 440 kts 286°
2026-04-21 17:14 40.79813 82.53914 40093 ft 440 kts 286°
2026-04-21 17:14 40.81348 82.46103 40093 ft 440 kts 286°
2026-04-21 17:15 40.82868 82.38334 40085 ft 440 kts 286°
2026-04-21 17:15 40.84390 82.30529 40096 ft 438 kts 286°
2026-04-21 17:16 40.85904 82.22734 40096 ft 438 kts 286°
2026-04-21 17:16 40.87412 82.14935 40096 ft 438 kts 286°
2026-04-21 17:17 40.88916 82.07128 40093 ft 438 kts 286°
2026-04-21 17:17 40.90413 81.99330 40096 ft 438 kts 286°
2026-04-21 17:18 40.91906 81.91518 40098 ft 438 kts 286°
2026-04-21 17:18 40.93393 81.83710 40098 ft 438 kts 286°
2026-04-21 17:19 40.94875 81.75893 40096 ft 438 kts 286°
2026-04-21 17:19 40.96354 81.68064 40096 ft 438 kts 286°
2026-04-21 17:20 40.97914 81.60334 40098 ft 437 kts 288°
2026-04-21 17:20 40.99702 81.52650 40099 ft 436 kts 289°
2026-04-21 17:21 41.01488 81.44977 40099 ft 436 kts 288°
2026-04-21 17:21 41.03233 81.37286 40104 ft 436 kts 288°
2026-04-21 17:22 41.04956 81.29580 40098 ft 436 kts 288°
2026-04-21 17:22 41.06672 81.21865 40098 ft 436 kts 288°
2026-04-21 17:23 41.08379 81.14172 40098 ft 436 kts 288°
2026-04-21 17:23 41.10085 81.06457 40101 ft 436 kts 288°
2026-04-21 17:24 41.11783 80.98752 40101 ft 436 kts 288°
2026-04-21 17:24 41.13480 80.91029 40101 ft 436 kts 288°
2026-04-21 17:25 41.15172 80.83297 40105 ft 436 kts 288°
2026-04-21 17:25 41.16843 80.75635 40107 ft 436 kts 288°
2026-04-21 17:26 41.18526 80.67893 40127 ft 436 kts 288°
2026-04-21 17:26 41.20198 80.60169 40101 ft 435 kts 288°
2026-04-21 17:27 41.21862 80.52461 40098 ft 434 kts 288°
2026-04-21 17:27 41.23515 80.44768 40107 ft 433 kts 288°
2026-04-21 17:28 41.25163 80.37074 40103 ft 433 kts 288°
2026-04-21 17:28 41.26809 80.29375 40101 ft 433 kts 288°
2026-04-21 17:29 41.28439 80.21666 40114 ft 433 kts 287°
2026-04-21 17:29 41.30055 80.13959 40099 ft 433 kts 287°
2026-04-21 17:30 41.31667 80.06254 40110 ft 432 kts 287°
2026-04-21 17:30 41.33278 79.98541 40110 ft 432 kts 287°
2026-04-21 17:31 41.34886 79.90823 40119 ft 434 kts 287°
2026-04-21 17:31 41.36494 79.83071 40118 ft 435 kts 287°
2026-04-21 17:32 41.38096 79.75312 40116 ft 434 kts 287°
2026-04-21 17:32 41.39689 79.67566 40126 ft 433 kts 287°
2026-04-21 17:33 41.41264 79.59883 40125 ft 433 kts 287°
2026-04-21 17:33 41.42847 79.52138 40131 ft 433 kts 287°
2026-04-21 17:34 41.44424 79.44386 40132 ft 433 kts 287°
2026-04-21 17:34 41.45998 79.36625 40150 ft 435 kts 287°
2026-04-21 17:35 41.47572 79.28833 40152 ft 435 kts 287°
2026-04-21 17:35 41.49141 79.21037 40167 ft 436 kts 287°
2026-04-21 17:36 41.50712 79.13197 40164 ft 438 kts 286°
2026-04-21 17:36 41.52283 79.05318 40194 ft 441 kts 287°
2026-04-21 17:37 41.53842 78.97454 40202 ft 436 kts 287°
2026-04-21 17:37 41.55395 78.89644 40199 ft 435 kts 286°
2026-04-21 17:38 41.56438 78.81671 40212 ft 439 kts 275°
2026-04-21 17:38 41.56374 78.73485 40213 ft 441 kts 271°
2026-04-21 17:39 41.56101 78.65284 40224 ft 441 kts 271°
2026-04-21 17:39 41.55805 78.57177 40227 ft 440 kts 271°
2026-04-21 17:40 41.55520 78.49029 40229 ft 439 kts 271°
2026-04-21 17:40 41.55237 78.40882 40230 ft 439 kts 271°
2026-04-21 17:41 41.54952 78.32741 40239 ft 439 kts 271°
2026-04-21 17:41 41.54663 78.24583 40247 ft 440 kts 271°
2026-04-21 17:42 41.54415 78.17766 40244 ft 439 kts 271°
2026-04-21 17:42 41.54104 78.09670 40246 ft 439 kts 271°
2026-04-21 17:43 41.53812 78.01509 40247 ft 439 kts 271°
2026-04-21 17:43 41.53501 77.93355 40248 ft 438 kts 271°
2026-04-21 17:44 41.53172 77.85306 40254 ft 433 kts 271°
2026-04-21 17:44 41.52848 77.77302 40257 ft 432 kts 271°
2026-04-21 17:45 41.52524 77.69289 40263 ft 432 kts 271°
2026-04-21 17:45 41.52195 77.61290 40270 ft 432 kts 271°
2026-04-21 17:46 41.51859 77.53299 40270 ft 431 kts 270°
2026-04-21 17:46 41.51519 77.45327 40265 ft 430 kts 270°
2026-04-21 17:47 41.51173 77.37350 40267 ft 430 kts 270°
2026-04-21 17:47 41.50824 77.29443 40267 ft 430 kts 270°
2026-04-21 17:48 41.50467 77.21481 40257 ft 429 kts 270°
2026-04-21 17:48 41.50105 77.13535 40257 ft 429 kts 270°
2026-04-21 17:49 41.49729 77.05591 40256 ft 428 kts 270°
2026-04-21 17:49 41.49356 76.97643 40255 ft 430 kts 270°
2026-04-21 17:50 41.48992 76.89709 40243 ft 429 kts 270°
2026-04-21 17:50 41.48608 76.81763 40232 ft 429 kts 270°
2026-04-21 17:51 41.48214 76.73848 40219 ft 427 kts 270°
2026-04-21 17:51 41.47818 76.65923 40222 ft 428 kts 270°
2026-04-21 17:52 41.47438 76.58001 40219 ft 429 kts 270°
2026-04-21 17:52 41.47036 76.50073 40185 ft 428 kts 270°
2026-04-21 17:53 41.46614 76.42165 40199 ft 426 kts 270°
2026-04-21 17:53 41.46194 76.34284 40188 ft 426 kts 270°
2026-04-21 17:54 41.45774 76.26402 40188 ft 426 kts 270°
2026-04-21 17:54 41.45352 76.18540 40180 ft 426 kts 270°
2026-04-21 17:55 41.44923 76.10666 40176 ft 425 kts 269°
2026-04-21 17:55 41.44492 76.02867 40183 ft 424 kts 269°
2026-04-21 17:56 41.44054 75.95034 40167 ft 424 kts 269°
2026-04-21 17:56 41.43611 75.87202 40182 ft 424 kts 269°
2026-04-21 17:57 41.43163 75.79375 40176 ft 423 kts 269°
2026-04-21 17:57 41.42710 75.71557 40179 ft 423 kts 269°
2026-04-21 17:58 41.42254 75.63745 40181 ft 423 kts 269°
2026-04-21 17:58 41.41791 75.55926 40170 ft 423 kts 269°
2026-04-21 17:59 41.41324 75.48112 40183 ft 423 kts 269°
2026-04-21 17:59 41.40851 75.40301 40177 ft 423 kts 268°
2026-04-21 18:00 41.40374 75.32502 40190 ft 423 kts 268°
2026-04-21 18:00 41.39890 75.24694 40190 ft 423 kts 268°
2026-04-21 18:01 41.39403 75.16898 40185 ft 423 kts 268°
2026-04-21 18:01 41.38910 75.09101 40124 ft 419 kts 268°
2026-04-21 18:02 41.38415 75.01378 40082 ft 421 kts 268°
2026-04-21 18:02 41.37914 74.93593 40089 ft 422 kts 268°
2026-04-21 18:03 41.37404 74.85806 40081 ft 422 kts 268°
2026-04-21 18:03 41.36891 74.78027 40082 ft 422 kts 268°
2026-04-21 18:04 41.36375 74.70299 40083 ft 422 kts 268°
2026-04-21 18:04 41.35855 74.62547 40067 ft 421 kts 268°
2026-04-21 18:05 41.35328 74.54787 40078 ft 421 kts 268°
2026-04-21 18:05 41.34792 74.47018 40084 ft 422 kts 268°
2026-04-21 18:06 41.34250 74.39250 40066 ft 421 kts 268°
2026-04-21 18:06 41.33706 74.31501 40063 ft 421 kts 267°
2026-04-21 18:07 41.33157 74.23757 40059 ft 419 kts 267°
2026-04-21 18:07 41.32606 74.16022 40056 ft 419 kts 267°
2026-04-21 18:08 41.32051 74.08302 40056 ft 419 kts 267°
2026-04-21 18:08 41.31490 74.00586 40053 ft 420 kts 267°
2026-04-21 18:09 41.31063 73.92856 40050 ft 418 kts 269°
2026-04-21 18:09 41.30788 73.85119 40060 ft 418 kts 270°
2026-04-21 18:10 41.30499 73.77392 40045 ft 419 kts 269°
2026-04-21 18:10 41.30175 73.69662 40042 ft 419 kts 269°
2026-04-21 18:11 41.29835 73.61920 40042 ft 419 kts 268°
2026-04-21 18:11 41.29488 73.54203 40045 ft 418 kts 268°
2026-04-21 18:12 41.29137 73.46467 40035 ft 418 kts 268°
2026-04-21 18:12 41.28790 73.38818 40036 ft 417 kts 268°
2026-04-21 18:13 41.28440 73.31107 40014 ft 419 kts 268°
2026-04-21 18:13 41.28069 73.23378 40010 ft 417 kts 268°
2026-04-21 18:14 41.27504 73.11851 39992 ft 415 kts 268°
2026-04-21 18:15 41.27128 73.04192 39992 ft 415 kts 268°
2026-04-21 18:15 41.26745 72.96530 39995 ft 416 kts 268°
2026-04-21 18:16 41.26359 72.88856 39978 ft 416 kts 267°
2026-04-21 18:16 41.25966 72.81181 39979 ft 416 kts 267°
2026-04-21 18:17 41.25569 72.73505 39963 ft 416 kts 267°
2026-04-21 18:17 41.25168 72.65833 39947 ft 417 kts 267°
2026-04-21 18:18 41.24764 72.58145 39939 ft 417 kts 267°
2026-04-21 18:18 41.24348 72.50454 39949 ft 418 kts 266°
2026-04-21 18:19 41.23921 72.42747 39932 ft 418 kts 267°
2026-04-21 18:19 41.23492 72.35092 39919 ft 419 kts 266°
2026-04-21 18:20 41.23053 72.27388 39950 ft 418 kts 266°
2026-04-21 18:20 41.22614 72.19705 39918 ft 416 kts 266°
2026-04-21 18:21 41.22180 72.12041 39919 ft 416 kts 266°
2026-04-21 18:21 41.21739 72.04390 39911 ft 416 kts 266°
2026-04-21 18:22 41.21292 71.96733 39906 ft 416 kts 266°
2026-04-21 18:22 41.20840 71.89074 39897 ft 416 kts 266°
2026-04-21 18:23 41.20383 71.81408 39900 ft 417 kts 266°
2026-04-21 18:23 41.19924 71.73720 39895 ft 417 kts 266°
2026-04-21 18:24 41.19454 71.66085 39892 ft 417 kts 266°
2026-04-21 18:24 41.18974 71.58413 39892 ft 418 kts 266°
2026-04-21 18:25 41.18492 71.50728 39886 ft 418 kts 266°
2026-04-21 18:25 41.18006 71.43047 39900 ft 417 kts 266°
2026-04-21 18:26 41.17515 71.35372 39914 ft 418 kts 266°
2026-04-21 18:26 41.17018 71.27694 39914 ft 417 kts 266°
2026-04-21 18:27 41.16516 71.20021 39929 ft 417 kts 265°
2026-04-21 18:27 41.16009 71.12345 39944 ft 417 kts 265°
2026-04-21 18:28 41.15494 71.04670 39941 ft 417 kts 265°
2026-04-21 18:28 41.14972 70.97016 39958 ft 417 kts 265°
2026-04-21 18:29 41.14542 70.90648 39956 ft 417 kts 265°
2026-04-21 18:29 41.14018 70.82994 39969 ft 416 kts 265°
2026-04-21 18:30 41.13493 70.75363 39969 ft 415 kts 265°
2026-04-21 18:30 41.12950 70.67761 39991 ft 415 kts 265°
2026-04-21 18:31 41.12416 70.60126 39991 ft 414 kts 265°
2026-04-21 18:31 41.11607 70.52562 40014 ft 416 kts 258°
2026-04-21 18:32 41.10198 70.45145 39997 ft 415 kts 256°
2026-04-21 18:32 41.08657 70.37779 39996 ft 414 kts 256°
2026-04-21 18:33 41.07110 70.30422 39994 ft 414 kts 256°
2026-04-21 18:33 41.05567 70.23070 39996 ft 414 kts 256°
2026-04-21 18:34 41.04031 70.15723 39983 ft 413 kts 256°
2026-04-21 18:34 41.02500 70.08394 39985 ft 413 kts 256°
2026-04-21 18:35 41.01222 70.02316 39981 ft 412 kts 256°
2026-04-21 18:35 40.99429 69.93820 39974 ft 412 kts 256°
2026-04-21 18:36 40.97884 69.86517 39969 ft 413 kts 256°
2026-04-21 18:36 40.96335 69.79222 39958 ft 411 kts 256°
2026-04-21 18:37 40.94788 69.71954 39958 ft 410 kts 256°
2026-04-21 18:37 40.93237 69.64697 39946 ft 410 kts 256°
2026-04-21 18:38 40.91680 69.57433 39948 ft 410 kts 256°
2026-04-21 18:38 40.90119 69.50180 39935 ft 410 kts 255°
2026-04-21 18:39 40.88558 69.42950 39935 ft 409 kts 255°
2026-04-21 18:39 40.86993 69.35728 39927 ft 409 kts 255°
2026-04-21 18:40 40.85424 69.28506 39927 ft 409 kts 255°
2026-04-21 18:40 40.84117 69.22512 39921 ft 409 kts 255°
2026-04-21 18:41 40.82284 69.14130 39923 ft 410 kts 255°
2026-04-21 18:41 40.80696 69.06897 39910 ft 411 kts 255°
2026-04-21 18:42 40.79102 68.99662 39911 ft 411 kts 255°
2026-04-21 18:42 40.77502 68.92422 39909 ft 411 kts 255°
2026-04-21 18:43 40.75901 68.85195 39913 ft 411 kts 254°
2026-04-21 18:43 40.74287 68.77940 39920 ft 414 kts 254°
2026-04-21 18:44 40.72660 68.70654 39917 ft 414 kts 254°
2026-04-21 18:44 40.71026 68.63355 39912 ft 415 kts 254°
2026-04-21 18:45 40.69389 68.56071 39920 ft 415 kts 254°
2026-04-21 18:45 40.67746 68.48776 39922 ft 415 kts 253°
2026-04-21 18:46 40.66098 68.41485 39919 ft 416 kts 253°
2026-04-21 18:46 40.64441 68.34186 39915 ft 416 kts 253°
2026-04-21 18:47 40.62781 68.26894 39909 ft 416 kts 253°
2026-04-21 18:47 40.61128 68.19653 39910 ft 416 kts 253°
2026-04-21 18:48 40.59455 68.12350 39909 ft 417 kts 253°
2026-04-21 18:48 40.57780 68.05060 39905 ft 417 kts 253°
2026-04-21 18:49 40.56096 67.97762 39904 ft 417 kts 253°
2026-04-21 18:49 40.54680 67.91641 39902 ft 417 kts 253°
2026-04-21 18:50 40.52715 67.83171 39899 ft 417 kts 253°
2026-04-21 18:50 40.51016 67.75873 39895 ft 417 kts 253°
2026-04-21 18:51 40.49314 67.68586 39900 ft 417 kts 253°
2026-04-21 18:51 40.47610 67.61316 39896 ft 417 kts 253°
2026-04-21 18:52 40.45901 67.54044 39892 ft 417 kts 253°
2026-04-21 18:52 40.44184 67.46761 39892 ft 418 kts 253°
2026-04-21 18:53 40.42454 67.39446 39900 ft 418 kts 253°
2026-04-21 18:53 40.40727 67.32175 39906 ft 418 kts 253°
2026-04-21 18:54 40.38991 67.24880 39908 ft 418 kts 252°
2026-04-21 18:54 40.37252 67.17600 39897 ft 419 kts 253°
2026-04-21 18:55 40.35800 67.11537 39903 ft 420 kts 252°
2026-04-21 18:55 40.33750 67.03006 39904 ft 420 kts 252°
2026-04-21 18:56 40.31992 66.95715 39907 ft 420 kts 252°
2026-04-21 18:56 40.30229 66.88423 39920 ft 420 kts 252°
2026-04-21 18:57 40.28463 66.81143 39917 ft 419 kts 252°
2026-04-21 18:57 40.26693 66.73870 39909 ft 419 kts 252°
2026-04-21 18:58 40.24919 66.66601 39899 ft 419 kts 252°
2026-04-21 18:58 40.23142 66.59346 39899 ft 419 kts 252°
2026-04-21 18:59 40.21370 66.52127 39906 ft 419 kts 252°
2026-04-21 18:59 40.19581 66.44870 39898 ft 419 kts 252°
2026-04-21 19:00 40.17775 66.37562 39896 ft 420 kts 251°
2026-04-21 19:00 40.15987 66.30347 39894 ft 420 kts 251°
2026-04-21 19:01 40.14186 66.23096 39898 ft 420 kts 251°
2026-04-21 19:01 40.12379 66.15846 39895 ft 420 kts 251°
2026-04-21 19:02 40.10560 66.08579 39895 ft 420 kts 251°
2026-04-21 19:02 40.08743 66.01340 39895 ft 420 kts 251°
2026-04-21 19:03 40.06919 65.94092 39892 ft 420 kts 251°
2026-04-21 19:03 40.05091 65.86848 39892 ft 420 kts 250°
2026-04-21 19:04 40.03262 65.79623 39890 ft 420 kts 250°
2026-04-21 19:04 40.01425 65.72391 39886 ft 419 kts 250°
2026-04-21 19:05 39.99587 65.65170 39888 ft 419 kts 250°
2026-04-21 19:05 39.97745 65.57959 39885 ft 420 kts 250°
2026-04-21 19:06 39.95897 65.50747 39881 ft 420 kts 250°
2026-04-21 19:06 39.94041 65.43522 39879 ft 420 kts 250°
2026-04-21 19:07 39.92184 65.36321 39875 ft 420 kts 250°
2026-04-21 19:07 39.90320 65.29109 39885 ft 420 kts 249°
2026-04-21 19:08 39.88452 65.21902 39870 ft 421 kts 249°
2026-04-21 19:08 39.86575 65.14684 39871 ft 421 kts 249°
2026-04-21 19:09 39.84693 65.07465 39859 ft 421 kts 249°
2026-04-21 19:09 39.82807 65.00252 39859 ft 421 kts 249°
2026-04-21 19:10 39.80918 64.93049 39853 ft 421 kts 249°
2026-04-21 19:10 39.79023 64.85844 39854 ft 421 kts 249°
2026-04-21 19:11 39.77122 64.78638 39848 ft 422 kts 249°
2026-04-21 19:11 39.75223 64.71463 39834 ft 423 kts 249°
2026-04-21 19:12 39.73616 64.65407 39826 ft 423 kts 249°
2026-04-21 19:12 39.71381 64.57004 39836 ft 423 kts 249°
2026-04-21 19:13 39.69457 64.49791 39836 ft 423 kts 249°
2026-04-21 19:13 39.67532 64.42598 39839 ft 423 kts 249°
2026-04-21 19:14 39.65593 64.35377 39851 ft 423 kts 249°
2026-04-21 19:14 39.63662 64.28201 39828 ft 421 kts 248°
2026-04-21 19:15 39.61725 64.21026 39827 ft 421 kts 248°
2026-04-21 19:15 39.59787 64.13867 39826 ft 421 kts 248°
2026-04-21 19:16 39.58176 64.07931 39825 ft 421 kts 248°
2026-04-21 19:16 39.55901 63.99574 39826 ft 420 kts 248°
2026-04-21 19:17 39.52986 63.88903 39826 ft 420 kts 248°
2026-04-21 19:17 39.51350 63.82934 39825 ft 420 kts 248°
2026-04-21 19:18 39.49389 63.75799 39826 ft 420 kts 248°
2026-04-21 19:18 39.47427 63.68677 39827 ft 421 kts 248°
2026-04-21 19:19 39.45452 63.61532 39829 ft 422 kts 248°
2026-04-21 19:19 39.43472 63.54385 39829 ft 422 kts 248°
2026-04-21 19:20 39.41486 63.47241 39829 ft 422 kts 248°
2026-04-21 19:20 39.39510 63.40154 39830 ft 422 kts 248°
2026-04-21 19:21 39.37516 63.33017 39829 ft 422 kts 248°
2026-04-21 19:21 39.35516 63.25880 39829 ft 422 kts 248°
2026-04-21 19:22 39.33514 63.18750 39826 ft 422 kts 248°
2026-04-21 19:22 39.31504 63.11615 39848 ft 422 kts 247°
2026-04-21 19:23 39.29491 63.04487 39836 ft 423 kts 247°
2026-04-21 19:23 39.27470 62.97355 39840 ft 423 kts 247°
2026-04-21 19:24 39.25444 62.90219 39839 ft 423 kts 247°
2026-04-21 19:24 39.23414 62.83093 39841 ft 423 kts 247°
2026-04-21 19:25 39.21376 62.75955 39849 ft 425 kts 247°
2026-04-21 19:25 39.19328 62.68803 39847 ft 425 kts 247°
2026-04-21 19:26 39.17277 62.61661 39853 ft 425 kts 247°
2026-04-21 19:26 39.15223 62.54525 39854 ft 425 kts 247°
2026-04-21 19:27 39.13166 62.47399 39858 ft 424 kts 247°
2026-04-21 19:27 39.11104 62.40278 39862 ft 424 kts 247°
2026-04-21 19:28 39.09054 62.33213 39862 ft 424 kts 247°
2026-04-21 19:28 39.06985 62.26103 39867 ft 424 kts 247°
2026-04-21 19:29 39.04912 62.18997 39870 ft 424 kts 246°
2026-04-21 19:29 39.02833 62.11894 39873 ft 424 kts 246°
2026-04-21 19:30 39.00764 62.04841 39873 ft 424 kts 246°
2026-04-21 19:30 38.98666 61.97710 39878 ft 424 kts 246°
2026-04-21 19:31 38.96577 61.90626 39886 ft 424 kts 246°
2026-04-21 19:31 38.94479 61.83531 39881 ft 424 kts 246°
2026-04-21 19:32 38.92381 61.76453 39881 ft 424 kts 246°
2026-04-21 19:32 38.90275 61.69369 39881 ft 424 kts 246°
2026-04-21 19:33 38.88169 61.62300 39881 ft 424 kts 246°
2026-04-21 19:33 38.86058 61.55234 39883 ft 424 kts 246°
2026-04-21 19:34 38.83955 61.48215 39884 ft 424 kts 246°
2026-04-21 19:34 38.81834 61.41155 39887 ft 424 kts 246°
2026-04-21 19:35 38.78647 61.30577 39892 ft 424 kts 246°
2026-04-21 19:36 38.76523 61.23551 39891 ft 423 kts 246°
2026-04-21 19:36 38.74394 61.16525 39889 ft 423 kts 246°
2026-04-21 19:37 38.72260 61.09502 39894 ft 423 kts 246°
2026-04-21 19:37 38.70126 61.02496 39909 ft 423 kts 246°
2026-04-21 19:38 38.67985 60.95486 39893 ft 422 kts 246°
2026-04-21 19:38 38.65847 60.88506 39894 ft 422 kts 246°
2026-04-21 19:39 38.63697 60.81504 39897 ft 422 kts 246°
2026-04-21 19:39 38.61552 60.74534 39911 ft 422 kts 245°
2026-04-21 19:40 38.59404 60.67573 39897 ft 420 kts 245°
2026-04-21 19:40 38.57255 60.60628 39897 ft 420 kts 245°
2026-04-21 19:41 38.55102 60.53686 39897 ft 420 kts 245°
2026-04-21 19:41 38.52947 60.46753 39900 ft 420 kts 245°
2026-04-21 19:42 38.50789 60.39827 39903 ft 420 kts 245°
2026-04-21 19:42 38.48635 60.32933 39903 ft 420 kts 245°
2026-04-21 19:43 38.46469 60.26016 39903 ft 420 kts 245°
2026-04-21 19:43 38.44280 60.19046 39903 ft 420 kts 245°
2026-04-21 19:44 38.42118 60.12174 39911 ft 421 kts 245°
2026-04-21 19:44 38.39934 60.05254 39912 ft 421 kts 245°
2026-04-21 19:45 38.37745 59.98333 39910 ft 421 kts 245°
2026-04-21 19:45 38.35551 59.91413 39913 ft 421 kts 245°
2026-04-21 19:46 38.33354 59.84502 39902 ft 421 kts 245°
2026-04-21 19:46 38.31149 59.77582 39906 ft 422 kts 245°
2026-04-21 19:47 38.28941 59.70669 39906 ft 422 kts 245°
2026-04-21 19:47 38.26729 59.63762 39905 ft 422 kts 245°
2026-04-21 19:48 38.24511 59.56851 39921 ft 422 kts 245°
2026-04-21 19:48 38.22289 59.49947 39914 ft 422 kts 245°
2026-04-21 19:49 38.20059 59.43033 39916 ft 422 kts 245°
2026-04-21 19:49 38.17825 59.36124 39917 ft 422 kts 245°
2026-04-21 19:50 38.15965 59.30385 39931 ft 423 kts 245°
2026-04-21 19:50 38.13340 59.22304 39918 ft 424 kts 245°
2026-04-21 19:51 38.11088 59.15389 39915 ft 424 kts 244°
2026-04-21 19:51 38.08831 59.08476 39916 ft 424 kts 244°
2026-04-21 19:52 38.06569 59.01564 39918 ft 424 kts 244°
2026-04-21 19:52 38.04300 58.94648 39920 ft 425 kts 244°
2026-04-21 19:53 38.02026 58.87733 39902 ft 425 kts 244°
2026-04-21 19:53 37.99760 58.80858 39920 ft 425 kts 244°
2026-04-21 19:54 37.97478 58.73952 39926 ft 425 kts 244°
2026-04-21 19:54 37.95194 58.67054 39923 ft 425 kts 244°
2026-04-21 19:55 37.92904 58.60157 39920 ft 425 kts 244°
2026-04-21 19:55 37.90607 58.53257 39920 ft 425 kts 244°
2026-04-21 19:56 37.88311 58.46372 39925 ft 425 kts 244°
2026-04-21 19:56 37.86004 58.39473 39920 ft 426 kts 244°
2026-04-21 19:57 37.83687 58.32560 39926 ft 426 kts 244°
2026-04-21 19:57 37.81369 58.25663 39928 ft 426 kts 244°
2026-04-21 19:58 37.79043 58.18762 39943 ft 428 kts 244°
2026-04-21 19:58 37.76709 58.11852 39927 ft 428 kts 244°
2026-04-21 19:59 37.74364 58.04917 39922 ft 428 kts 244°
2026-04-21 19:59 37.72023 57.98004 39934 ft 428 kts 244°
2026-04-21 20:00 37.69674 57.91096 39936 ft 428 kts 244°
2026-04-21 20:00 37.67318 57.84187 39938 ft 429 kts 244°
2026-04-21 20:01 37.64958 57.77275 39940 ft 429 kts 244°
2026-04-21 20:01 37.62593 57.70365 39944 ft 429 kts 244°
2026-04-21 20:02 37.60627 57.64635 39954 ft 429 kts 244°
2026-04-21 20:02 37.57869 57.56617 39968 ft 430 kts 244°
2026-04-21 20:03 37.55484 57.49700 39979 ft 430 kts 244°
2026-04-21 20:03 37.53099 57.42794 39988 ft 430 kts 244°
2026-04-21 20:04 37.50968 57.36643 40001 ft 430 kts 244°
2026-04-21 20:04 37.48322 57.29922 39993 ft 428 kts 239°
2026-04-21 20:05 37.45356 57.23432 39995 ft 428 kts 238°
2026-04-21 20:05 37.42328 57.16969 39936 ft 428 kts 238°
2026-04-21 20:06 37.39306 57.10534 39939 ft 428 kts 238°
2026-04-21 20:06 37.36790 57.05171 39933 ft 429 kts 238°
2026-04-21 20:07 37.33757 56.98705 39931 ft 429 kts 238°
2026-04-21 20:07 37.30710 56.92244 39930 ft 430 kts 237°
2026-04-21 20:08 37.27661 56.85800 39917 ft 429 kts 238°
2026-04-21 20:08 37.24618 56.79336 39921 ft 430 kts 238°
2026-04-21 20:09 37.21568 56.72873 39928 ft 431 kts 237°
2026-04-21 20:09 37.18505 56.66416 39925 ft 431 kts 237°
2026-04-21 20:10 37.15445 56.59949 39922 ft 431 kts 238°
2026-04-21 20:10 37.12382 56.53481 39924 ft 431 kts 237°
2026-04-21 20:11 37.09321 56.47035 39925 ft 431 kts 237°
2026-04-21 20:11 37.06265 56.40610 39922 ft 431 kts 237°
2026-04-21 20:12 37.03172 56.34125 39916 ft 432 kts 237°
2026-04-21 20:12 37.00108 56.27717 39924 ft 432 kts 237°
2026-04-21 20:13 36.97018 56.21269 39928 ft 432 kts 237°
2026-04-21 20:13 36.93924 56.14825 39926 ft 432 kts 237°
2026-04-21 20:14 36.90824 56.08383 39925 ft 432 kts 237°
2026-04-21 20:14 36.87720 56.01946 39927 ft 432 kts 237°
2026-04-21 20:15 36.84610 55.95507 39926 ft 432 kts 237°
2026-04-21 20:15 36.81505 55.89090 39927 ft 432 kts 237°
2026-04-21 20:16 36.78412 55.82709 39926 ft 432 kts 237°
2026-04-21 20:16 36.75297 55.76294 39924 ft 433 kts 237°
2026-04-21 20:17 36.72172 55.69870 39926 ft 434 kts 237°
2026-04-21 20:17 36.69035 55.63434 39925 ft 434 kts 237°
2026-04-21 20:18 36.65899 55.57006 39928 ft 434 kts 237°
2026-04-21 20:18 36.62755 55.50556 39928 ft 435 kts 237°
2026-04-21 20:19 36.59608 55.44131 39929 ft 436 kts 237°
2026-04-21 20:19 36.56434 55.37672 39923 ft 437 kts 237°
2026-04-21 20:20 36.53263 55.31224 39922 ft 437 kts 237°
2026-04-21 20:20 36.50093 55.24783 39926 ft 437 kts 237°
2026-04-21 20:21 36.48503 55.21561 39920 ft 438 kts 237°